カタログに戻る

STARLINK-37445

運用中通信VLEO
NORAD 69165·PAYLOAD·🇺🇸 United States

打ち上げ May 21, 2026 から Cape Canaveral Space Force Station

Loading…

次のパス (今後24時間)

TLE

最新Source: CelesTrak SupGP

元期: Sep 14, 2026, 14:36 UTC

1 69165C 26111T   26257.60881944 -.00007122  00000+0 -21045-3 0  2575
2 69165  53.1578  93.2195 0001301 101.1867 306.3266 15.34387594    12

AllMySatでSTARLINK-37445をリアルタイム追跡

Download on the App Store